This is the latest recevied weather packets stored in our database for station/object WA4OPQ-3. If no packets are shown the sender has not sent any weather packets the latest 10 day(s).
| Time | Temp. | Humidity | Pressure | Rain* | Wind** | Luminosity | Snow |
|---|---|---|---|---|---|---|---|
| 1777657113 | 17.78° C | 62% | 1014.8 hPa | 0 mm | - | 436 W/m² | - |
| 1777656509 | 17.78° C | 62% | 1015 hPa | 0 mm | - | 363 W/m² | - |
| 1777655903 | 17.78° C | 65% | 1015.4 hPa | 0 mm | - | 416 W/m² | - |
| 1777655298 | 18.33° C | 64% | 1015.1 hPa | 0 mm | - | 397 W/m² | - |
| 1777654694 | 18.33° C | 63% | 1015.3 hPa | 0 mm | - | 433 W/m² | - |
| 1777654088 | 18.33° C | 65% | 1015.3 hPa | 0 mm | - | 425 W/m² | - |
| 1777653483 | 17.78° C | 63% | 1015.2 hPa | 0 mm | - | 498 W/m² | - |
| 1777652878 | 18.33° C | 63% | 1015.4 hPa | 0 mm | - | 529 W/m² | - |
| 1777652272 | 17.78° C | 62% | 1015.2 hPa | 0 mm | - | 549 W/m² | - |
| 1777651668 | 17.78° C | 60% | 1015.5 hPa | 0 mm | - | 623 W/m² | - |
| 1777651063 | 17.78° C | 59% | 1015.3 hPa | 0 mm | - | 545 W/m² | - |
| 1777650459 | 17.22° C | 60% | 1015.4 hPa | 0 mm | - | 613 W/m² | - |
| 1777649853 | 17.78° C | 59% | 1015.5 hPa | 0 mm | - | 650 W/m² | - |
| 1777649248 | 17.78° C | 60% | 1015.4 hPa | 0 mm | - | 728 W/m² | - |
| 1777648642 | 17.22° C | 59% | 1015.6 hPa | 0 mm | - | 584 W/m² | - |
| 1777648037 | 17.78° C | 57% | 1015.7 hPa | 0 mm | - | 700 W/m² | - |
| 1777647433 | 17.22° C | 59% | 1015.6 hPa | 0 mm | - | 685 W/m² | - |
| 1777646828 | 16.67° C | 59% | 1015.4 hPa | 0 mm | - | 684 W/m² | - |
| 1777646223 | 16.11° C | 62% | 1015.4 hPa | 0 mm | - | 620 W/m² | - |
| 1777645618 | 16.11° C | 65% | 1015.5 hPa | 0 mm | - | 373 W/m² | - |
| 1777645013 | 15.56° C | 77% | 1015.3 hPa | 0 mm | - | 438 W/m² | - |
| 1777644408 | 14.44° C | 83% | 1015.2 hPa | 0 mm | - | 417 W/m² | - |
| 1777643804 | 14.44° C | 82% | 1015.5 hPa | 0 mm | - | 302 W/m² | - |
| 1777643199 | 13.33° C | 85% | 1015.5 hPa | 0 mm | - | 319 W/m² | - |
| 1777642594 | 12.78° C | 89% | 1015.3 hPa | 0 mm | - | 389 W/m² | - |
* Rain latest hour (hover to see other rain measurements)
** Current wind speed in m/s (hover to see current wind gust speed)